M0TUM-1 Weather Reports


Display with metric or nautical units.
time (UTC)temp
F
wind
direction
speed
MPH
gust
MPH
rain 1hr
in
rain 24hr
in
rain mn
in
humidity
%
barometer
mb
20260508002743 48 188 0.0 0.0 0.00 0.00 0.00 85 1017.1
20260508002241 48 183 0.0 0.0 0.00 0.00 0.00 85 1017.1
20260508001736 48 168 1.0 1.0 0.00 0.00 0.00 85 1017.1
20260508001232 48 194 0.0 0.0 0.00 0.00 0.00 85 1017.1
20260508000729 48 172 1.0 1.0 0.00 0.00 0.00 85 1017.3
20260508000227 48 170 2.0 2.0 0.00 0.00 0.00 85 1016.8
20260507235722 48 172 0.0 1.0 0.00 0.00 0.00 85 1017.1
20260507235220 48 167 1.0 1.0 0.00 0.00 0.00 85 1017.2
20260507234717 48 153 2.0 2.0 0.00 0.00 0.00 85 1017.3
20260507234213 48 153 1.0 1.0 0.00 0.00 0.00 85 1017.3
20260507233710 48 188 0.0 0.0 0.00 0.00 0.00 85 1017.1
20260507233208 48 146 1.0 2.0 0.00 0.00 0.00 85 1017.3
20260507232705 48 181 0.0 1.0 0.00 0.00 0.00 84 1017.3
20260507232202 48 166 1.0 1.0 0.00 0.00 0.00 84 1016.9
20260507231658 48 187 0.0 0.0 0.00 0.00 0.00 84 1017.6
20260507231155 48 190 0.0 0.0 0.00 0.00 0.00 84 1017.2
20260507230652 48 165 0.0 0.0 0.00 0.00 0.00 84 1017.4
20260507230149 49 147 1.0 1.0 0.00 0.00 0.00 84 1017.4
20260507225649 49 191 0.0 0.0 0.00 0.00 0.00 84 1017.6
20260507225146 49 166 0.0 0.0 0.00 0.00 0.00 84 1017.4
20260507224641 49 200 0.0 0.0 0.00 0.00 0.00 84 1017.6
20260507224138 49 191 0.0 0.0 0.00 0.00 0.00 84 1017.2
20260507223634 49 144 1.0 2.0 0.00 0.00 0.00 84 1017.4
20260507223131 49 181 0.0 0.0 0.00 0.00 0.00 83 1017.5
20260507222628 49 185 0.0 0.0 0.00 0.00 0.00 83 1017.4
20260507222124 49 187 0.0 0.0 0.00 0.00 0.00 83 1017.3
20260507221621 49 183 1.0 1.0 0.00 0.00 0.00 83 1017.6
20260507221117 49 179 0.0 1.0 0.00 0.00 0.00 83 1017.3
20260507220615 49 183 0.0 0.0 0.00 0.00 0.00 83 1017.4
20260507220112 49 176 1.0 1.0 0.00 0.00 0.00 83 1017.4
20260507215608 49 155 0.0 1.0 0.00 0.00 0.00 83 1017.6
20260507215106 49 192 0.0 0.0 0.00 0.00 0.00 82 1017.6
20260507214603 49 203 0.0 0.0 0.00 0.00 0.00 83 1017.5
20260507214059 49 188 0.0 0.0 0.00 0.00 0.00 82 1017.9
20260507213555 49 193 0.0 0.0 0.00 0.00 0.00 82 1017.5
20260507213053 49 183 1.0 1.0 0.00 0.00 0.00 82 1017.6
20260507212548 49 175 0.0 1.0 0.00 0.00 0.00 82 1017.7
20260507212046 49 131 1.0 1.0 0.00 0.00 0.00 82 1017.6
20260507211542 49 175 1.0 1.0 0.00 0.00 0.00 81 1017.6
20260507211038 49 185 0.0 0.0 0.00 0.00 0.00 81 1017.5
20260507210536 49 147 1.0 1.0 0.00 0.00 0.00 81 1017.5
20260507210032 49 173 1.0 1.0 0.00 0.00 0.00 81 1017.2
20260507205529 50 157 1.0 2.0 0.00 0.00 0.00 81 1017.4
20260507205025 50 163 0.0 1.0 0.00 0.00 0.00 81 1017.3
20260507204521 50 191 0.0 0.0 0.00 0.00 0.00 81 1017.5
20260507204020 50 172 1.0 1.0 0.00 0.00 0.00 80 1017.3
20260507203517 50 163 2.0 2.0 0.00 0.00 0.00 80 1017.3
20260507203014 50 146 2.0 3.0 0.00 0.00 0.00 80 1017.2
20260507202510 50 183 2.0 2.0 0.00 0.00 0.00 80 1016.8
20260507202006 50 134 1.0 2.0 0.00 0.00 0.00 80 1017.2
20260507201502 50 144 3.0 3.0 0.00 0.00 0.00 80 1017.1
20260507200958 50 167 2.0 2.0 0.00 0.00 0.00 79 1017.0
20260507200454 50 156 2.0 2.0 0.00 0.00 0.00 79 1017.0
20260507195949 50 130 1.0 2.0 0.00 0.00 0.00 79 1016.9
20260507195448 50 78 1.0 1.0 0.00 0.00 0.00 79 1017.0
20260507194945 50 161 3.0 3.0 0.00 0.00 0.00 79 1016.8
20260507194441 50 137 1.0 2.0 0.00 0.00 0.00 78 1016.9
20260507193937 50 213 2.0 2.0 0.00 0.00 0.00 78 1016.8
20260507193434 50 166 1.0 1.0 0.00 0.00 0.00 77 1016.8
20260507192931 50 157 3.0 5.0 0.00 0.00 0.00 77 1016.9
20260507192427 50 182 0.0 0.0 0.00 0.00 0.00 77 1016.7
20260507191925 50 130 2.0 2.0 0.00 0.00 0.00 77 1016.8
20260507191420 51 147 3.0 5.0 0.00 0.00 0.00 76 1016.9
20260507190917 51 113 3.0 5.0 0.00 0.00 0.00 76 1016.8
20260507190415 51 119 2.0 3.0 0.00 0.00 0.00 76 1016.9
20260507185914 51 150 0.0 1.0 0.00 0.00 0.00 76 1016.7
20260507185411 51 137 3.0 6.0 0.00 0.00 0.00 75 1016.9
20260507184907 51 108 6.0 7.0 0.00 0.00 0.00 75 1016.9
20260507184405 51 153 4.0 5.0 0.00 0.00 0.00 74 1016.7
20260507183902 51 178 1.0 1.0 0.00 0.00 0.00 74 1016.8
20260507183359 51 147 0.0 1.0 0.00 0.00 0.00 74 1016.8
20260507182857 51 98 4.0 6.0 0.00 0.00 0.00 73 1016.6
20260507182352 51 144 3.0 6.0 0.00 0.00 0.00 73 1016.5
20260507181849 51 145 3.0 5.0 0.00 0.00 0.00 73 1016.6
20260507181344 51 153 2.0 3.0 0.00 0.00 0.00 73 1016.5
20260507180842 52 144 2.0 3.0 0.00 0.00 0.00 72 1016.3
20260507180338 52 76 1.0 1.0 0.00 0.00 0.00 72 1016.4
20260507175834 52 123 1.0 1.0 0.00 0.00 0.00 72 1016.5
20260507175331 52 176 2.0 2.0 0.00 0.00 0.00 72 1016.8
20260507174829 52 138 2.0 3.0 0.00 0.00 0.00 72 1016.6
20260507174326 52 129 2.0 3.0 0.00 0.00 0.00 71 1016.4
20260507173823 52 139 1.0 2.0 0.00 0.00 0.00 71 1016.6
20260507173320 52 124 0.0 1.0 0.00 0.00 0.00 71 1016.5
20260507172817 52 144 3.0 5.0 0.00 0.00 0.00 71 1016.6
20260507172314 53 172 3.0 5.0 0.00 0.00 0.00 70 1016.7
20260507171809 53 168 1.0 1.0 0.00 0.00 0.00 70 1016.8
20260507171307 53 127 5.0 7.0 0.00 0.00 0.00 70 1016.5
20260507170803 53 191 2.0 2.0 0.00 0.00 0.00 70 1016.4
20260507170300 53 93 3.0 5.0 0.00 0.00 0.00 70 1016.6
20260507165756 53 185 0.0 0.0 0.00 0.00 0.00 69 1016.3
20260507165252 53 131 5.0 6.0 0.00 0.00 0.00 69 1016.6
20260507164748 53 173 4.0 5.0 0.00 0.00 0.00 68 1016.4
20260507164245 53 56 4.0 7.0 0.00 0.00 0.00 68 1016.3
20260507163742 53 171 2.0 3.0 0.00 0.00 0.00 68 1016.5
20260507163240 54 140 2.0 5.0 0.00 0.00 0.00 68 1016.5
20260507162736 54 192 0.0 1.0 0.00 0.00 0.00 68 1016.5
20260507162232 54 151 3.0 6.0 0.00 0.00 0.00 67 1016.6
20260507161729 55 159 0.0 1.0 0.00 0.00 0.00 67 1016.5
20260507161225 55 162 2.0 3.0 0.00 0.00 0.00 66 1016.4
20260507160721 55 139 1.0 1.0 0.00 0.00 0.00 66 1016.3
20260507160218 55 156 3.0 3.0 0.00 0.00 0.00 66 1016.4
20260507155714 55 114 3.0 6.0 0.00 0.00 0.00 66 1016.4
20260507155210 54 158 5.0 7.0 0.00 0.00 0.00 65 1016.6
20260507154707 55 117 5.0 8.0 0.00 0.00 0.00 65 1016.4
20260507154205 55 110 4.0 6.0 0.00 0.00 0.00 65 1016.5
20260507153701 54 145 3.0 6.0 0.00 0.00 0.00 66 1016.6
20260507153157 55 180 2.0 3.0 0.00 0.00 0.00 65 1016.4
20260507152654 54 110 3.0 7.0 0.00 0.00 0.00 65 1016.4
20260507152150 55 139 3.0 3.0 0.00 0.00 0.00 65 1016.4
20260507151646 55 162 2.0 2.0 0.00 0.00 0.00 64 1016.5
20260507151143 55 130 4.0 5.0 0.00 0.00 0.00 64 1016.5
20260507150640 55 112 2.0 3.0 0.00 0.00 0.00 64 1016.4
20260507150137 55 175 1.0 1.0 0.00 0.00 0.00 64 1016.5
20260507145632 55 143 5.0 7.0 0.00 0.00 0.00 63 1016.5
20260507145130 55 62 3.0 6.0 0.00 0.00 0.00 63 1016.6
20260507144626 55 131 1.0 2.0 0.00 0.00 0.00 63 1016.4
20260507144124 55 144 2.0 5.0 0.00 0.00 0.00 63 1016.5
20260507143620 55 148 2.0 5.0 0.00 0.00 0.00 63 1016.6
20260507143118 56 131 3.0 3.0 0.00 0.00 0.00 62 1016.6
20260507142613 56 167 3.0 5.0 0.00 0.00 0.00 62 1016.6
20260507142110 56 102 1.0 2.0 0.00 0.00 0.00 61 1016.5
20260507141607 56 131 3.0 5.0 0.00 0.00 0.00 61 1016.4
20260507141103 56 197 1.0 1.0 0.00 0.00 0.00 61 1016.7
20260507140600 56 131 2.0 3.0 0.00 0.00 0.00 62 1016.5
20260507140057 56 328 3.0 5.0 0.00 0.00 0.00 62 1016.7
20260507135554 56 156 5.0 8.0 0.00 0.00 0.00 62 1016.7
20260507135052 56 155 4.0 5.0 0.00 0.00 0.00 62 1016.7
20260507134548 56 164 6.0 7.0 0.00 0.00 0.00 62 1016.6
20260507134044 56 158 2.0 3.0 0.00 0.00 0.00 62 1016.6
20260507133540 57 151 3.0 5.0 0.00 0.00 0.00 61 1016.8
20260507133038 57 221 2.0 3.0 0.00 0.00 0.00 62 1016.8
20260507132534 58 145 3.0 5.0 0.00 0.00 0.00 59 1016.8
20260507132031 58 164 6.0 8.0 0.00 0.00 0.00 57 1016.9
20260507131528 60 180 1.0 2.0 0.00 0.00 0.00 55 1016.7
20260507131025 59 88 3.0 3.0 0.00 0.00 0.00 56 1016.7
20260507130522 58 32 1.0 2.0 0.00 0.00 0.00 56 1016.8
20260507130020 58 55 3.0 3.0 0.00 0.00 0.00 58 1016.8
20260507125518 58 91 1.0 1.0 0.00 0.00 0.00 57 1016.7
20260507125015 58 148 1.0 2.0 0.00 0.00 0.00 58 1016.8
20260507124512 57 208 0.0 0.0 0.00 0.00 0.00 59 1016.8
20260507124010 56 105 2.0 3.0 0.00 0.00 0.00 60 1016.7
20260507123507 57 194 1.0 1.0 0.00 0.00 0.00 61 1016.8
20260507123004 57 162 3.0 3.0 0.00 0.00 0.00 59 1016.9
20260507122459 57 282 1.0 1.0 0.00 0.00 0.00 58 1016.9
20260507121955 58 221 1.0 1.0 0.00 0.00 0.00 56 1017.0
20260507121451 58 173 1.0 2.0 0.00 0.00 0.00 57 1016.9
20260507120947 58 243 1.0 1.0 0.00 0.00 0.00 57 1016.9
20260507120443 58 107 2.0 2.0 0.00 0.00 0.00 57 1016.9
20260507115940 59 135 1.0 2.0 0.00 0.00 0.00 57 1016.9
20260507115436 57 268 1.0 1.0 0.00 0.00 0.00 60 1017.0
20260507114933 56 189 0.0 1.0 0.00 0.00 0.00 62 1017.2
20260507114429 55 259 0.0 0.0 0.00 0.00 0.00 63 1017.3
20260507113926 53 213 0.0 0.0 0.00 0.00 0.00 65 1017.1
20260507113423 56 149 1.0 1.0 0.00 0.00 0.00 63 1017.2
20260507112921 55 151 2.0 2.0 0.00 0.00 0.00 63 1017.1
20260507112418 54 225 0.0 1.0 0.00 0.00 0.00 64 1017.2
20260507111915 55 254 1.0 2.0 0.00 0.00 0.00 63 1017.1
20260507111412 55 135 0.0 1.0 0.00 0.00 0.00 65 1017.3
20260507110908 54 102 1.0 2.0 0.00 0.00 0.00 66 1017.3
20260507110404 54 179 0.0 1.0 0.00 0.00 0.00 66 1017.2
20260507105901 53 196 0.0 0.0 0.00 0.00 0.00 67 1017.3
20260507105358 53 176 0.0 1.0 0.00 0.00 0.00 67 1017.2
20260507104855 53 164 2.0 2.0 0.00 0.00 0.00 66 1017.3
20260507104351 53 214 0.0 0.0 0.00 0.00 0.00 66 1017.4
20260507103847 53 193 0.0 1.0 0.00 0.00 0.00 67 1017.3
20260507103343 53 82 2.0 3.0 0.00 0.00 0.00 67 1017.4
20260507100329 52 176 2.0 2.0 0.00 0.00 0.00 67 1017.3
20260507095827 52 176 2.0 2.0 0.00 0.00 0.00 67 1017.3
20260507095323 52 176 2.0 2.0 0.00 0.00 0.00 67 1017.3
20260507094821 53 266 0.0 0.0 0.00 0.00 0.00 66 1017.3
20260507094317 53 1 0.0 0.0 0.00 0.00 0.00 65 1017.1
20260507093814 53 166 1.0 1.0 0.00 0.00 0.00 64 1017.1
20260507093312 53 120 1.0 2.0 0.00 0.00 0.00 64 1017.0
20260507092810 53 49 3.0 5.0 0.00 0.00 0.00 64 1017.2
20260507092307 53 156 2.0 2.0 0.00 0.00 0.00 63 1017.1
20260507091803 52 222 0.0 1.0 0.00 0.00 0.00 64 1017.1
20260507091259 52 148 2.0 3.0 0.00 0.00 0.00 64 1017.2
20260507090759 52 133 4.0 5.0 0.00 0.00 0.00 64 1017.2
20260507090256 52 167 0.0 0.0 0.00 0.00 0.00 64 1017.0
20260507085754 53 164 1.0 1.0 0.00 0.00 0.00 64 1017.2
20260507085250 52 195 0.0 0.0 0.00 0.00 0.00 64 1017.2
20260507084748 52 195 1.0 1.0 0.00 0.00 0.00 66 1017.1
20260507084244 52 86 1.0 1.0 0.00 0.00 0.00 65 1017.0
20260507083741 52 217 0.0 1.0 0.00 0.00 0.00 65 1017.1
20260507083238 51 87 1.0 1.0 0.00 0.00 0.00 65 1017.1
20260507082734 52 174 2.0 2.0 0.00 0.00 0.00 66 1017.1
20260507082230 52 187 0.0 0.0 0.00 0.00 0.00 66 1017.0
20260507081727 52 185 2.0 2.0 0.00 0.00 0.00 67 1016.9
20260507081223 51 241 1.0 2.0 0.00 0.00 0.00 68 1016.8
20260507080720 51 132 2.0 2.0 0.00 0.00 0.00 70 1016.8
20260507080216 51 134 2.0 2.0 0.00 0.00 0.00 69 1017.0
20260507075711 51 187 0.0 1.0 0.00 0.00 0.00 70 1016.7
20260507075208 50 175 0.0 1.0 0.00 0.00 0.00 71 1016.8
20260507074704 50 171 0.0 0.0 0.00 0.00 0.00 73 1016.7
20260507074203 49 181 1.0 1.0 0.00 0.00 0.00 74 1016.8
20260507073659 49 143 2.0 2.0 0.00 0.00 0.00 74 1016.8
20260507073155 49 186 0.0 0.0 0.00 0.00 0.00 75 1016.5
20260507072653 49 82 1.0 2.0 0.00 0.00 0.00 75 1016.6
20260507072150 49 139 0.0 1.0 0.00 0.00 0.00 74 1016.5
20260507071648 49 168 0.0 1.0 0.00 0.00 0.00 74 1016.6
20260507071144 49 65 1.0 1.0 0.00 0.00 0.00 75 1016.5
20260507070641 48 148 0.0 1.0 0.00 0.00 0.00 75 1016.5
20260507070138 48 174 0.0 0.0 0.00 0.00 0.00 75 1016.8
20260507065634 48 184 0.0 0.0 0.00 0.00 0.00 75 1016.6
20260507065131 48 201 1.0 1.0 0.00 0.00 0.00 75 1016.4
20260507064629 49 129 1.0 2.0 0.00 0.00 0.00 75 1016.6
20260507064127 49 160 0.0 0.0 0.00 0.00 0.00 76 1016.7
20260507063624 49 154 0.0 0.0 0.00 0.00 0.00 76 1016.6
20260507063121 48 196 0.0 0.0 0.00 0.00 0.00 76 1016.3
20260507062618 48 197 0.0 0.0 0.00 0.00 0.00 76 1016.5
20260507062116 48 204 0.0 0.0 0.00 0.00 0.00 77 1016.3
20260507061613 48 209 0.0 0.0 0.00 0.00 0.00 77 1016.5
20260507061111 48 171 1.0 1.0 0.00 0.00 0.00 77 1016.6
20260507060609 48 182 0.0 0.0 0.00 0.00 0.00 77 1016.3
20260507060105 48 84 1.0 1.0 0.00 0.00 0.00 79 1016.3
20260507055600 48 125 1.0 1.0 0.00 0.00 0.00 80 1016.2
20260507055057 47 196 0.0 0.0 0.00 0.00 0.00 81 1016.2
20260507054553 47 166 1.0 2.0 0.00 0.00 0.00 82 1016.0
20260507054050 46 189 0.0 0.0 0.00 0.00 0.00 83 1016.2
20260507053548 46 196 0.0 0.0 0.00 0.00 0.00 83 1016.1
20260507053046 46 160 1.0 1.0 0.00 0.00 0.00 84 1016.0
20260507052544 46 197 0.0 0.0 0.00 0.00 0.00 84 1016.2
20260507052040 46 192 0.0 0.0 0.00 0.00 0.00 84 1016.2
20260507051538 46 203 0.0 0.0 0.00 0.00 0.00 84 1016.0
20260507051035 46 186 0.0 0.0 0.00 0.00 0.00 85 1016.1
20260507050531 46 211 0.0 0.0 0.00 0.00 0.00 85 1016.1
20260507050028 46 209 0.0 0.0 0.00 0.00 0.00 85 1015.9
20260507045524 46 213 0.0 0.0 0.00 0.00 0.00 85 1015.9
20260507045022 46 208 0.0 0.0 0.00 0.00 0.00 85 1016.0
20260507044518 46 251 0.0 0.0 0.00 0.00 0.00 85 1015.8
20260507044015 45 270 0.0 1.0 0.00 0.00 0.00 85 1015.8
20260507043511 45 308 1.0 1.0 0.00 0.00 0.00 85 1015.7
20260507043008 45 213 0.0 0.0 0.00 0.00 0.00 86 1016.1
20260507042504 46 207 0.0 0.0 0.00 0.00 0.00 86 1016.0
20260507042000 46 214 0.0 0.0 0.00 0.00 0.00 86 1015.7
20260507041457 46 221 0.0 0.0 0.00 0.00 0.00 85 1015.9
20260507040954 46 214 0.0 0.0 0.00 0.00 0.00 85 1015.8
20260507040450 46 223 0.0 0.0 0.00 0.00 0.00 85 1015.8
20260507035945 46 228 0.0 0.0 0.00 0.00 0.00 85 1015.7
20260507035442 46 244 1.0 1.0 0.00 0.00 0.00 85 1015.5
20260507034939 45 225 0.0 1.0 0.00 0.00 0.00 85 1015.6
20260507034436 45 219 0.0 0.0 0.00 0.00 0.00 85 1015.4
20260507033934 45 224 0.0 0.0 0.00 0.00 0.00 85 1015.5
20260507033432 45 216 0.0 0.0 0.00 0.00 0.00 85 1015.5
20260507032928 45 204 0.0 0.0 0.00 0.00 0.00 84 1015.5
20260507032426 45 204 0.0 0.0 0.00 0.00 0.00 84 1015.6
20260507031921 45 204 0.0 0.0 0.00 0.00 0.00 84 1015.3
20260507031418 45 204 0.0 0.0 0.00 0.00 0.00 84 1015.5
20260507030915 45 204 0.0 0.0 0.00 0.00 0.00 84 1015.5
20260507030412 45 208 0.0 0.0 0.00 0.00 0.00 84 1015.5
20260507025909 46 208 0.0 0.0 0.00 0.00 0.00 84 1015.2
20260507025407 46 206 0.0 0.0 0.00 0.00 0.00 84 1015.6
20260507024904 46 196 0.0 0.0 0.00 0.00 0.00 83 1015.4
20260507024401 46 193 0.0 0.0 0.00 0.00 0.00 83 1015.4
20260507023857 46 196 0.0 0.0 0.00 0.00 0.00 83 1015.5
20260507023354 46 201 0.0 0.0 0.00 0.00 0.00 83 1015.6
20260507022851 46 207 0.0 0.0 0.00 0.00 0.00 83 1015.4
20260507022348 46 205 0.0 0.0 0.00 0.00 0.00 83 1015.4
20260507021844 46 210 0.0 0.0 0.00 0.00 0.00 82 1015.5
20260507021339 46 212 0.0 0.0 0.00 0.00 0.00 82 1015.6
20260507020838 46 202 0.0 0.0 0.00 0.00 0.00 82 1015.5
20260507020334 46 213 0.0 0.0 0.00 0.00 0.00 82 1015.7
20260507015831 46 217 0.0 0.0 0.00 0.00 0.00 82 1015.4
20260507015329 46 206 0.0 0.0 0.00 0.00 0.00 82 1015.4
20260507014826 46 197 0.0 0.0 0.00 0.00 0.00 82 1015.5
20260507014322 46 204 0.0 0.0 0.00 0.00 0.00 82 1015.4
20260507013818 46 253 1.0 1.0 0.00 0.00 0.00 82 1015.5
20260507013315 46 237 0.0 1.0 0.00 0.00 0.00 82 1015.2
20260507012813 46 210 0.0 0.0 0.00 0.00 0.00 82 1015.4
20260507012309 46 214 0.0 0.0 0.00 0.00 0.00 82 1015.4
20260507011806 46 248 0.0 1.0 0.00 0.00 0.00 82 1015.4
20260507011303 46 261 0.0 0.0 0.00 0.00 0.00 83 1015.5
20260507010802 46 272 1.0 1.0 0.00 0.00 0.00 83 1015.6
20260507010258 47 353 1.0 1.0 0.00 0.00 0.00 83 1015.3
20260507005756 47 211 0.0 0.0 0.00 0.00 0.00 83 1015.4
20260507005252 47 202 0.0 0.0 0.00 0.00 0.00 83 1015.3
20260507004749 47 170 0.0 0.0 0.00 0.00 0.00 83 1015.4
20260507004247 47 181 0.0 1.0 0.00 0.00 0.00 83 1015.2
20260507003743 47 284 1.0 1.0 0.00 0.00 0.00 83 1015.3
20260507003238 47 216 0.0 0.0 0.00 0.00 0.00 83 1015.3